Вернуться в каталог

OPS 3148

АктивенВоенныеMEO
NORAD 3889·PAYLOAD·🇺🇸 United States

Запущен Apr 13, 1969 с Cape Canaveral Space Force Station

Loading…

Ближайшие Пролёты (ближайшие 24 часа)

TLE

СвежийSource: Mike McCants

Эпоха: Sep 15, 2026, 00:58 UTC

1 03889U 69036A   26258.04029409  .00000000  00000-0  00000-0 0    06
2 03889  13.7058  38.1903 0963801 196.5970 160.0204  1.00384454 16618

Отслеживайте OPS 3148 в реальном времени с AllMySat

Download on the App Store